Content
SEND FEEDBACK

Daily
Averages
Monthly
Summary
Finland

HELSINKI, FINLAND


Home > Europe > Finland
Elevation: 184 feet     Latitude: 60 19N     Longitude: 024 58E

WEATHER
 
SELECT A DAY
Number of Records: 322,468;   Date Range: 7/1/96 - 12/25/14
 
SHARE

PRINT THIS DATA

[ ← Previous Day ]
WEATHER ALMANAC - MARCH 5, 2013
[ Next Day → ]
[ °C ]   °F
Weather ElementAverageHighLow
Temperature28.1 °F33.8 °F (9:20 pm)23 °F (4:20 am)
Dewpoint26.9 °F32 °F (7:50 pm)23 °F (12:50 am)
Humidity95.4 %100 % (4:20 am)92 % (2:00 am)
Barometer29.88 in29.97 in (8:00 am)29.71 in (11:50 pm)
Wind Speed9 mph13.8 mph (8:50 pm)
Weather ElementAverage
Visibility3.7 mi
Wind DirectionSE (140.6 °)

Weather ElementTotal
Precipitation---
Heating Degree Days36.6 (Base 65)
Averaged from 51 records on March 5, 2013
WEATHER CONDITIONS BREAKOUT
WIND DIRECTION BREAKOUT
WEATHER BY HOUR - MARCH 5, 2013
[ °C ]   °F
Local TimeTemperatureDewpointHumidityBarometerVisibilityWind DirectionWind SpeedGust SpeedPrecipitationEventsConditions
12:50 AM24.8 °F23.0 °F93 %29.95 in2.2 miESE (110°)6.9 mphDrizzle
1:20 AM24.8 °F23.0 °F93 %29.92 in2.5 miESE (120°)8.1 mphDrizzle
1:50 AM24.8 °F23.0 °F93 %29.92 in2.8 miEast (100°)5.8 mphDrizzle
2:00 AM24.0 °F23.0 °F92 %29.96 in3.0 miESE (120°)8.9 mphRainLight Freezing Drizzle
2:20 AM24.8 °F23.0 °F93 %29.95 in3.1 miEast (100°)4.6 mphMostly Cloudy
2:50 AM24.8 °F23.0 °F93 %29.92 in3.7 miEast (90°)5.8 mphMostly Cloudy
3:20 AM24.8 °F23.0 °F93 %29.92 in5.0 miEast (90°)5.8 mphMostly Cloudy
3:50 AM24.8 °F23.0 °F93 %29.92 in6.2 miEast (80°)5.8 mphMostly Cloudy
4:20 AM23.0 °F23.0 °F100 %29.92 in6.2 miEast (80°)6.9 mphMostly Cloudy
4:50 AM23.0 °F23.0 °F100 %29.92 in6.2 miEast (90°)5.8 mphMostly Cloudy
5:20 AM23.0 °F23.0 °F100 %29.92 in6.2 miEast (90°)6.9 mphMostly Cloudy
5:50 AM24.8 °F23.0 °F93 %29.92 in5.0 miEast (90°)6.9 mphOvercast
6:20 AM24.8 °F23.0 °F93 %29.92 in4.3 miEast (90°)6.9 mphOvercast
6:50 AM24.8 °F23.0 °F93 %29.95 in3.1 miEast (100°)5.8 mphOvercast
7:20 AM24.8 °F23.0 °F93 %29.95 in2.8 miESE (110°)5.8 mphDrizzle
7:50 AM24.8 °F23.0 °F93 %29.95 in2.8 miEast (90°)5.8 mphDrizzle
8:00 AM25.0 °F24.0 °F92 %29.97 in3.0 miESE (110°)6.7 mphRainLight Freezing Drizzle
8:20 AM24.8 °F24.8 °F100 %29.92 in3.1 miEast (100°)5.8 mphDrizzle
8:50 AM24.8 °F24.8 °F100 %29.92 in2.2 miEast (100°)6.9 mphSnowLight Snow Grains
9:20 AM26.6 °F24.8 °F93 %29.92 in2.5 miESE (110°)5.8 mphSnowLight Snow Grains
9:50 AM26.6 °F24.8 °F93 %29.92 in4.3 miESE (110°)5.8 mphSnowLight Snow Grains
10:20 AM26.6 °F24.8 °F93 %29.92 in4.3 miESE (120°)8.1 mphSnowLight Snow Grains
10:50 AM26.6 °F26.6 °F100 %29.92 in4.3 miSE (130°)10.4 mphOvercast
11:20 AM26.6 °F26.6 °F100 %29.92 in4.3 miESE (120°)8.1 mphOvercast
11:50 AM28.4 °F26.6 °F93 %29.92 in2.8 miSE (130°)11.5 mphOvercast
12:20 PM28.4 °F26.6 °F93 %29.92 in1.6 miSE (140°)11.5 mphOvercast
12:50 PM28.4 °F28.4 °F100 %29.92 in2.5 miSE (140°)10.4 mphOvercast
1:20 PM28.4 °F26.6 °F93 %29.92 in6.2 miSE (140°)10.4 mphOvercast
1:50 PM28.4 °F26.6 °F93 %29.92 in6.2 miSSE (160°)9.2 mphOvercast
2:00 PM28.0 °F27.0 °F95 %29.94 in6.0 miSouth (170°)8.9 mphPartly Cloudy
2:20 PM28.4 °F28.4 °F100 %29.89 in3.1 miSSE (150°)8.1 mphOvercast
2:50 PM28.4 °F28.4 °F100 %29.89 in0.9 miSSE (160°)8.1 mphOvercast
3:20 PM28.4 °F28.4 °F100 %29.89 in0.5 miSSE (160°)6.9 mphFogLight Freezing Fog
3:50 PM30.2 °F28.4 °F93 %29.89 in0.8 miSouth (170°)8.1 mphOvercast
4:20 PM30.2 °F30.2 °F100 %29.86 in2.8 miSouth (170°)10.4 mphOvercast
4:50 PM30.2 °F30.2 °F100 %29.86 in1.7 miSouth (180°)9.2 mphOvercast
5:20 PM32.0 °F30.2 °F93 %29.83 in1.6 miSSE (160°)8.1 mphOvercast
5:50 PM32.0 °F30.2 °F93 %29.83 in1.7 miSouth (180°)9.2 mphDrizzle
6:20 PM32.0 °F30.2 °F93 %29.83 in2.8 miSouth (180°)11.5 mphDrizzle
6:50 PM32.0 °F30.2 °F93 %29.83 in3.1 miSouth (190°)12.7 mphOvercast
7:20 PM32.0 °F30.2 °F93 %29.80 in3.1 miSouth (190°)12.7 mphDrizzle
7:50 PM32.0 °F32.0 °F100 %29.80 in2.8 miSouth (180°)12.7 mphLight Drizzle
8:00 PM32.0 °F31.0 °F97 %29.83 in3.0 miSSW (200°)13.4 mphRainLight Drizzle
8:20 PM32.0 °F32.0 °F100 %29.80 in2.8 miSouth (190°)12.7 mphLight Drizzle
8:50 PM32.0 °F32.0 °F100 %29.77 in3.7 miSouth (190°)13.8 mphMostly Cloudy
9:20 PM33.8 °F32.0 °F93 %29.77 in6.2 miSSW (200°)13.8 mphMostly Cloudy
9:50 PM32.0 °F32.0 °F100 %29.77 in6.2 miSouth (190°)13.8 mphMostly Cloudy
10:20 PM33.8 °F32.0 °F93 %29.74 in6.2 miSouth (190°)13.8 mphMostly Cloudy
10:50 PM33.8 °F32.0 °F93 %29.74 in6.2 miSouth (190°)12.7 mphMostly Cloudy
11:20 PM33.8 °F32.0 °F93 %29.74 in6.2 miSSW (210°)13.8 mphMostly Cloudy
11:50 PM32.0 °F30.2 °F93 %29.71 in6.2 miSSW (210°)13.8 mphMostly Cloudy
Hourly data recorded from EFHK, located miles away from Helsinki, Finland







STORIES FROM OUR PARTNERS